Regional Weather Roundup
Issued by NWS

Home | Current Version | Previous Version | Text Only | Print | Product List | Glossary Off
Versions: 1 2 3 4 5 6 7 8 9 10 11 12 13 14 15 16 17 18 19 20 21 22 23 24 25 26 27 28 29 30 31 32 33 34 35 36 37 38 39 40 41 42 43 44 45 46 47 48 49 50

000
ASUS43 KLSX 290257
RWRMO

WEATHER SUMMARY FOR MISSOURI
NATIONAL WEATHER SERVICE SPRINGFIELD MO
1000 PM CDT SAT MAY 28 2016

NOTE: "FAIR" INDICATES FEW OR NO CLOUDS BELOW 12,000 FEET WITH NO
       SIGNIFICANT WEATHER AND/OR OBSTRUCTIONS TO VISIBILITY.
       CURRENT SKY AND/OR WEATHER CONDITIONS ARE NOT AVAILABLE FOR
       CHILLICOTHE AND FARMINGTON.

MOZ001>031-035>038-043-044-053-054-290400-
...NORTHERN AND WESTERN MISSOURI...

CITY           SKY/WX    TMP DP  RH WIND       PRES   REMARKS
KANSAS CTY INT CLEAR     65  59  81 S6        29.97R
LEE`S SUMMIT   CLEAR     69  60  73 SW5       29.99R
ST JOSEPH      CLEAR     68  61  78 SW6       29.95R
CHILLICOTHE      N/A     66  62  87 CALM      29.97R

$$
MOZ066>068-077>081-088>096-101>105-290400-
...SOUTHWEST MISSOURI...

CITY           SKY/WX    TMP DP  RH WIND       PRES   REMARKS
SPRINGFIELD    CLEAR     68  61  78 SW5       30.02R
JOPLIN         CLEAR     67  63  87 S8        30.01R

$$
MOZ032>034-039>042-045>050-055>058-069>072-290400-
...CENTRAL MISSOURI...

CITY           SKY/WX    TMP DP  RH WIND       PRES   REMARKS
COLUMBIA       NOT AVBL
JEFFERSON CITY CLOUDY    73  62  68 E6        29.99R
ROLLA          CLOUDY    66  61  84 SW8       30.00S
SEDALIA        CLEAR     71  62  73 SW3       30.00R
WARRENSBURG    CLEAR     68  61  77 SW5       29.98R

$$
MOZ051-052-059>065-290400-
...EAST CENTRAL MISSOURI...

CITY           SKY/WX    TMP DP  RH WIND       PRES   REMARKS
ST LOUIS INTL  CLOUDY    79  65  62 SW10G21   29.98R

$$
MOZ072>076-082>087-097>100-106>115-290400-
...SOUTH CENTRAL AND SOUTHEAST MISSOURI...

CITY           SKY/WX    TMP DP  RH WIND       PRES   REMARKS
CAPE GIRARDEAU MOCLDY    72  68  87 S6        30.02R
POPLAR BLUFF   CLEAR     74  69  85 SW3       30.02R
WEST PLAINS    CLEAR     72  65  78 S7        30.04R

$$


USA.gov is the U.S. government's official web portal to all federal, state and local government web resources and services.